Sheridan, WY

10:44 AM MDT on March 29, 2017 (GMT -0600)
Sheridan County

Weather History for KSHR - December, 2011

Change the Weather History Date:

Monday, December 19, 2011

  Actual Average Record
Temperature  
Mean Temperature 20 °F 22 °F  
Max Temperature 32 °F 34 °F 62 °F (2004)
Min Temperature 7 °F 10 °F -25 °F (1924)
Degree Days  
Heating Degree Days 45 43  
Month to date heating degree days 806 794  
Since 1 July heating degree days 2430 2672  
Cooling Degree Days 0 0  
Month to date cooling degree days 0 0  
Year to date cooling degree days 511 419  
Moisture  
Dew Point 20 °F    
Average Humidity 81    
Maximum Humidity 92    
Minimum Humidity 69    
Precipitation  
Precipitation 0.06 in 0.02 in 0.44 in (1925)
Month to date precipitation 0.27 0.36  
Year to date precipitation 18.45 13.96  
Sea Level Pressure  
Sea Level Pressure 30.24 in    
Wind  
Wind Speed 5 mph (WNW)    
Max Wind Speed 14 mph    
Max Gust Speed 17 mph    
Visibility 6 miles    
Events Snow    
T = Trace of Precipitation, MM = Missing Value Source: NWS Daily Summary

Daily Weather History Graph

Daily Weather History Graph

Search for Another Location

Airport or City:

Trip Planner

Search our weather history database for the weather conditions in past years. The results will help you decide how hot, cold, wet, or windy it might be!

Date:

Astronomy

Dec. 19, 2011 Rise Set
Actual Time 7:41 AM MST 4:28 PM MST
Civil Twilight 7:07 AM MST 5:02 PM MST
Nautical Twilight 6:30 AM MST 5:39 PM MST
Astronomical Twilight 5:54 AM MST 6:15 PM MST
Moon 1:45 AM MST (12/19) 12:37 PM MST (12/19)
Length of Visible Light 9h 55m
Length of Day
8h 47m
Waning Crescent, 30% of the Moon is Illuminated
Dec 19
Waning Crescent
Dec 24
New
Dec 31
First Quarter
Jan 9
Full
Jan 16
Last Quarter

Hourly Weather History & Observations

Time (MST) Temp. Windchill Dew Point Humidity Pressure Visibility Wind Dir Wind Speed Gust Speed Precip Events Conditions
12:01 AM 30.2 °F 21.3 °F 26.6 °F 86% 30.15 in 2.5 mi North 10.4 mph - 0.01 in Snow Light Snow
12:12 AM 30.2 °F 21.3 °F 26.6 °F 86% 30.15 in 4.0 mi NNE 10.4 mph - 0.01 in Snow Light Snow
12:53 AM 28.0 °F 20.0 °F 25.0 °F 88% 30.23 in 2.5 mi North 8.1 mph - 0.01 in Snow Light Snow
1:12 AM 28.4 °F 19.7 °F 24.8 °F 86% 30.16 in 3.0 mi North 9.2 mph - 0.01 in Snow Light Snow
1:53 AM 27.0 °F 18.7 °F 24.1 °F 89% 30.25 in 3.0 mi NNW 8.1 mph - 0.02 in Snow Light Snow
2:10 AM 26.6 °F 18.2 °F 24.8 °F 93% 30.18 in 2.0 mi NNW 8.1 mph - 0.00 in Snow Light Snow
2:19 AM 26.6 °F 17.5 °F 23.0 °F 86% 30.19 in 1.8 mi NNW 9.2 mph - 0.00 in Snow Light Snow
2:33 AM 26.6 °F 18.2 °F 23.0 °F 86% 30.19 in 2.5 mi NNW 8.1 mph - 0.01 in Snow Light Snow
2:49 AM 26.6 °F 17.5 °F 23.0 °F 86% 30.20 in 1.8 mi NW 9.2 mph - 0.02 in Snow Light Snow
2:53 AM 26.1 °F 17.6 °F 23.0 °F 88% 30.28 in 1.8 mi NW 8.1 mph - 0.02 in Snow Light Snow
3:26 AM 26.6 °F 18.2 °F 23.0 °F 86% 30.20 in 2.0 mi NW 8.1 mph - 0.01 in Snow Light Snow
3:38 AM 26.6 °F 17.5 °F 23.0 °F 86% 30.21 in 4.0 mi WNW 9.2 mph - 0.01 in Snow Light Snow
3:53 AM 26.1 °F 17.6 °F 23.0 °F 88% 30.30 in 5.0 mi WNW 8.1 mph - 0.01 in Snow Light Snow
4:07 AM 26.6 °F 19.1 °F 23.0 °F 86% 30.21 in 2.5 mi WNW 6.9 mph - 0.00 in Snow Light Snow
4:17 AM 26.6 °F 18.2 °F 23.0 °F 86% 30.21 in 4.0 mi WNW 8.1 mph - 0.00 in Snow Light Snow
4:53 AM 26.1 °F 18.4 °F 23.0 °F 88% 30.32 in 4.0 mi WNW 6.9 mph - 0.00 in Snow Light Snow
5:53 AM 26.1 °F 20.5 °F 23.0 °F 88% 30.34 in 4.0 mi West 4.6 mph - 0.00 in Snow Light Snow
6:44 AM 26.6 °F 20.0 °F 23.0 °F 86% 30.25 in 2.0 mi SW 5.8 mph - 0.01 in Snow Light Snow
6:53 AM 26.1 °F 21.9 °F 23.0 °F 88% 30.36 in 2.0 mi WSW 3.5 mph - 0.01 in Snow Light Snow
7:00 AM 26.6 °F 21.2 °F 23.0 °F 86% 30.26 in 3.0 mi WSW 4.6 mph - 0.00 in Snow Light Snow
7:53 AM 25.0 °F - 21.9 °F 88% 30.37 in 6.0 mi Calm Calm - 0.00 in Snow Light Snow
8:53 AM 24.1 °F - 21.9 °F 91% 30.38 in 8.0 mi Calm Calm - 0.00 in   Mostly Cloudy
9:53 AM 24.1 °F 19.7 °F 21.9 °F 91% 30.37 in 10.0 mi SSW 3.5 mph - N/A   Clear
10:53 AM 26.1 °F 21.9 °F 21.9 °F 84% 30.35 in 10.0 mi South 3.5 mph - N/A   Clear
11:53 AM 30.0 °F 25.2 °F 21.9 °F 72% 30.33 in 10.0 mi SE 4.6 mph - N/A   Clear
12:53 PM 30.9 °F 21.2 °F 23.0 °F 72% 30.30 in 10.0 mi SE 12.7 mph - N/A   Clear
1:53 PM 30.2 °F 21.9 °F 21.2 °F 69% 30.13 in 10.0 mi South 9.2 mph - N/A   Clear
2:53 PM 28.9 °F 21.9 °F 21.0 °F 72% 30.25 in 10.0 mi West 6.9 mph - N/A   Clear
3:53 PM 26.1 °F 16.2 °F 19.9 °F 78% 30.27 in 10.0 mi West 10.4 mph - N/A   Clear
4:53 PM 21.0 °F - 16.0 °F 81% 30.27 in 10.0 mi Calm Calm - N/A   Clear
5:53 PM 17.6 °F - 14.0 °F 86% 30.12 in 10.0 mi Calm Calm - N/A   Clear
6:53 PM 15.8 °F - 12.2 °F 86% 30.08 in 10.0 mi Calm Calm - N/A   Clear
7:53 PM 17.1 °F 7.6 °F 12.9 °F 84% 30.23 in 10.0 mi WNW 6.9 mph - N/A   Clear
8:53 PM 10.9 °F 4.7 °F 8.1 °F 88% 30.24 in 10.0 mi SSW 3.5 mph - N/A   Clear
9:53 PM 12.0 °F - 9.0 °F 88% 30.24 in 10.0 mi Calm Calm - N/A   Clear
10:53 PM 10.9 °F 1.4 °F 8.1 °F 88% 30.20 in 10.0 mi SSW 5.8 mph - N/A   Clear
11:53 PM 7.0 °F - 3.0 °F 84% 30.18 in 10.0 mi Calm Calm - N/A   Clear